Wind_Speed
11 11 11 12 14 17 17 17 17 17 16 15 13 10 9 7 6 5 4 3 3 2 2 1 1 1 1 2 4 5 6 6 6 7 7 7 7 7 7 7 8 8 9
10 9 9 10 12 14 15 17 17 17 15 14 12 9 8 7 5 5 3 3 2 2 2 1 0 0 1 2 3 5 5 6 7 7 8 8 8 8 8 8 8 9 9
8 7 7 8 9 11 12 14 14 14 14 13 11 9 8 7 6 5 4 3 3 2 2 1 1 1 1 2 3 4 5 6 7 8 8 9 8 9 9 9 9 9 10
6 5 4 4 7 8 10 11 12 12 12 11 10 9 8 7 6 5 5 4 4 3 2 2 1 1 1 2 3 4 5 6 7 8 9 10 10 10 10 10 10 11 11
5 3 1 3 5 7 9 9 10 11 11 10 9 9 8 8 7 6 6 5 5 4 3 2 2 1 0 1 2 3 5 6 7 9 10 11 11 11 11 11 12 12 12
5 3 1 1 3 6 8 10 10 10 9 9 10 9 9 8 7 7 7 6 6 5 4 4 3 2 1 2 3 4 5 7 8 9 10 11 12 12 13 13 13 13 14
5 3 2 2 3 5 8 9 9 9 9 9 9 9 9 8 8 8 8 7 7 7 6 5 5 4 4 4 5 6 7 8 9 10 11 12 13 14 14 14 14 15 15
4 3 2 3 4 5 6 8 8 8 9 9 10 10 10 9 9 9 9 9 9 8 8 7 7 7 7 7 8 8 9 10 11 12 13 14 15 16 16 16 16 17 17
5 3 3 3 4 6 7 8 9 8 8 9 10 10 10 10 11 11 10 10 10 10 10 10 10 10 10 10 11 12 13 13 14 15 16 17 17 18 18 18 19 19 19
6 5 4 4 5 6 7 8 9 9 8 9 10 11 11 11 12 12 12 12 12 12 12 12 12 13 14 14 15 16 16 16 18 19 19 20 20 20 21 21 21 21 21
7 6 6 5 6 7 7 8 9 9 9 10 11 11 12 12 13 13 13 13 13 13 14 14 15 16 17 17 18 19 20 20 21 22 23 23 23 23 23 23 23 23 23
9 7 6 7 7 7 7 8 9 10 10 11 12 13 13 14 14 15 15 15 16 16 16 17 18 19 20 21 21 22 23 24 25 25 26 26 26 26 26 26 25 25 25
10 9 8 8 8 8 8 9 10 11 11 12 13 14 15 15 16 16 17 18 19 19 20 20 21 22 23 24 24 25 26 27 28 28 28 29 29 29 28 28 28 28 27
12 11 10 9 9 9 10 11 11 12 13 14 14 15 16 17 17 18 19 20 21 22 23 24 24 25 26 26 27 28 29 29 30 30 31 31 31 31 31 30 30 30 30
14 13 13 12 12 13 12 12 13 14 15 16 17 17 18 19 19 20 21 22 23 24 25 26 27 27 28 29 30 31 31 32 32 32 33 33 33 33 32 32 32 32 32
17 16 16 16 15 14 15 15 16 17 17 18 19 20 20 20 21 22 23 25 26 27 27 28 29 30 30 31 32 33 33 34 34 34 34 34 34 34 34 34 34 34 34
19 19 19 19 18 18 19 19 19 20 20 21 22 23 23 23 24 25 26 27 28 29 30 31 31 31 32 34 35 35 35 35 36 36 36 36 36 36 36 36 36 36 37
21 21 21 21 21 21 22 23 23 24 24 25 25 26 27 27 28 28 29 30 31 31 32 33 33 34 34 34 36 37 38 37 37 38 38 38 38 38 39 39 38 38 39
23 24 24 24 24 25 25 25 26 27 27 28 28 29 30 31 31 31 31 32 33 34 34 35 35 36 36 37 38 38 38 38 39 39 39 40 41 41 42 42 42 41 42
25 25 25 26 27 27 27 28 28 29 30 31 31 32 34 33 34 34 34 35 35 36 36 37 38 38 38 38 39 39 40 40 41 41 41 42 43 44 44 45 45 44 44
25 26 27 27 28 29 29 30 31 31 32 34 35 36 36 36 36 36 36 36 36 38 38 38 38 38 38 39 39 41 43 44 44 44 44 45 46 46 47 47 47 47 48
25 26 28 28 29 31 31 32 33 34 34 36 37 37 38 39 39 39 38 38 38 40 41 39 38 38 39 41 42 42 43 45 46 46 46 47 48 48 49 50 50 51 51
27 28 29 30 30 31 33 34 34 34 35 36 38 38 38 39 39 39 40 40 40 40 40 39 40 41 42 43 44 45 46 47 49 48 48 49 50 52 53 53 53 54 54
27 28 28 29 30 31 32 33 34 34 34 36 36 35 36 38 37 37 38 40 40 40 41 42 43 44 46 47 47 48 49 49 50 51 51 53 54 55 55 55 56 56 57
27 28 29 29 30 31 32 33 33 33 35 35 36 36 36 37 37 37 38 39 40 41 41 42 44 45 46 47 48 50 50 51 52 53 54 55 55 56 57 57 58 58 58
27 28 29 30 31 31 32 33 33 33 34 35 35 36 36 37 37 37 38 40 41 41 42 43 45 46 46 48 49 50 51 53 54 55 55 56 57 58 58 59 59 60 60
Wind_Direction
296 280 264 241 232 230 228 228 229 231 233 235 230 228 225 230 234 242 252 250 249 255 261 279 303 339 355 6 9 8 9 6 2 359 355 353 351 343 331 321 317 314 312
303 285 263 238 229 228 227 229 228 228 230 227 226 224 222 230 232 234 237 238 240 236 224 217 179 38 14 12 21 22 24 19 15 9 2 358 354 350 343 335 326 320 317
311 297 257 229 225 226 222 221 224 224 225 220 222 223 225 228 225 223 220 222 214 197 183 175 151 109 62 49 34 25 23 19 16 12 7 2 357 354 350 344 337 330 325
323 294 254 217 216 215 212 213 218 218 215 215 218 221 222 219 221 217 215 212 208 200 197 196 170 119 85 55 32 21 14 12 10 7 4 2 360 356 352 347 339 332 326
343 323 249 221 210 210 212 210 213 210 207 213 217 218 216 217 220 216 218 216 213 208 211 210 210 205 138 25 8 2 359 359 0 359 358 358 357 354 350 346 341 336 330
348 346 284 226 224 218 214 213 212 212 213 216 218 218 216 217 218 219 219 220 215 214 217 222 230 232 255 302 327 332 336 339 342 344 346 347 346 346 344 342 340 336 332
347 337 285 253 235 222 215 209 219 221 220 219 220 220 216 216 222 224 225 222 221 223 225 233 241 251 264 279 298 311 318 322 325 330 333 336 337 337 336 335 333 332 330
334 329 291 261 238 226 219 214 221 218 219 221 223 221 221 224 228 227 226 225 226 230 236 243 251 258 267 276 286 296 303 307 312 317 321 323 326 328 328 328 328 328 328
323 314 288 257 242 230 227 227 223 219 223 227 227 226 227 229 231 231 229 231 234 239 245 251 257 263 269 276 283 290 295 299 303 307 311 314 317 318 320 320 321 321 322
314 313 298 274 247 236 233 232 230 231 231 233 232 232 234 235 235 235 236 238 242 246 252 257 262 266 271 277 283 288 292 296 300 302 304 307 309 311 311 312 313 313 313
302 300 296 287 258 243 242 240 235 235 240 242 238 238 239 241 240 240 242 245 249 254 259 264 267 271 275 278 283 287 290 293 296 298 300 302 304 306 306 307 307 307 307
293 286 280 278 269 253 243 240 241 242 245 245 241 243 244 246 246 246 248 252 256 260 264 267 270 273 277 280 283 286 289 291 293 296 297 299 300 302 303 303 303 303 303
288 284 275 268 265 259 252 250 248 247 247 249 249 249 250 250 251 253 255 258 261 264 268 270 273 276 279 281 284 286 288 290 292 294 295 296 297 298 299 299 300 300 300
281 279 273 273 268 266 262 258 256 254 254 253 252 254 255 255 257 258 260 263 266 268 271 273 275 277 279 282 284 286 288 289 291 292 292 293 294 294 295 295 296 296 298
278 278 276 273 271 268 266 266 264 262 260 260 256 258 260 260 261 263 266 267 269 270 272 274 276 277 279 281 283 285 286 287 288 289 290 290 291 292 292 292 293 293 295
275 274 274 276 275 273 272 270 269 268 268 268 267 267 269 268 267 268 269 271 272 273 273 274 276 277 278 280 283 284 285 285 286 287 287 288 288 289 290 290 290 291 293
274 274 275 275 277 276 276 275 273 273 273 273 272 272 272 272 273 273 274 275 275 276 277 276 277 279 280 280 282 284 284 285 285 284 284 285 286 287 288 289 289 290 291
273 272 273 273 274 275 274 273 274 274 277 277 276 275 275 275 275 276 275 276 276 277 277 276 277 279 279 280 283 284 283 283 283 283 283 284 285 287 287 287 288 289 290
270 271 271 270 271 273 273 274 274 274 276 278 277 276 277 277 277 277 277 278 279 278 279 279 279 279 279 281 282 282 282 282 282 283 284 285 285 286 286 287 288 289 288
269 270 270 271 272 272 273 274 273 274 276 278 279 280 279 279 278 277 278 280 279 277 278 278 279 279 278 280 281 281 282 283 283 283 284 284 285 285 286 287 288 288 287
272 271 271 272 274 275 275 275 276 275 277 279 279 280 279 278 277 276 277 278 277 277 279 278 278 278 279 280 281 282 283 283 283 283 283 283 284 285 286 286 287 286 285
274 274 274 273 274 275 276 276 277 277 277 278 279 280 279 278 278 278 278 278 278 281 281 281 281 281 281 283 283 284 285 285 284 284 284 286 286 286 287 287 287 286 285
276 276 276 276 276 277 277 278 276 276 278 279 280 280 279 279 279 278 278 280 281 282 282 282 283 284 284 284 284 284 285 284 284 285 285 285 285 287 288 287 287 286 286
279 279 278 277 277 277 278 280 280 281 281 281 281 281 281 283 284 283 284 284 283 284 284 284 285 285 285 284 284 284 285 285 285 285 285 285 286 287 287 287 287 287 286
281 281 281 281 281 280 280 279 280 280 281 281 281 282 283 284 284 284 285 285 284 284 285 286 286 286 286 286 287 287 287 287 287 288 288 288 288 288 287 287 287 287 286
284 284 283 282 282 282 282 281 281 282 282 284 285 286 285 286 287 288 288 288 287 286 286 287 288 287 288 289 289 289 289 289 290 290 290 290 290 289 289 288 287 287 286
Height
5835 5834 5834 5836 5838 5841 5844 5848 5851 5854 5858 5861 5864 5866 5869 5871 5872 5873 5875 5876 5877 5877 5878 5878 5878 5878 5879 5879 5879 5879 5878 5878 5878 5878 5877 5876 5876 5875 5875 5875 5875 5874 5874
5834 5833 5833 5834 5837 5840 5842 5846 5849 5852 5856 5860 5862 5865 5867 5869 5871 5872 5874 5875 5876 5877 5877 5878 5878 5878 5878 5879 5879 5879 5878 5878 5878 5877 5877 5876 5876 5875 5874 5874 5873 5873 5872
5833 5832 5831 5833 5836 5839 5842 5844 5848 5851 5855 5858 5860 5863 5866 5868 5870 5871 5873 5874 5876 5876 5877 5877 5878 5878 5878 5878 5879 5879 5879 5878 5878 5877 5877 5876 5875 5874 5874 5873 5872 5871 5871
5833 5833 5833 5834 5837 5839 5841 5844 5847 5850 5853 5856 5859 5862 5865 5867 5869 5870 5872 5874 5875 5875 5876 5877 5877 5878 5878 5878 5878 5879 5878 5878 5878 5877 5876 5875 5874 5874 5873 5872 5871 5870 5869
5834 5833 5834 5835 5837 5839 5841 5843 5846 5849 5852 5855 5858 5861 5863 5866 5868 5870 5871 5873 5874 5875 5876 5876 5877 5878 5878 5878 5878 5878 5878 5878 5877 5877 5876 5875 5874 5873 5872 5871 5870 5869 5867
5835 5835 5835 5836 5838 5839 5841 5844 5846 5849 5852 5855 5858 5860 5862 5864 5866 5868 5870 5871 5873 5874 5875 5876 5876 5877 5877 5878 5878 5878 5878 5877 5877 5876 5875 5874 5873 5872 5871 5869 5868 5867 5866
5836 5836 5836 5837 5838 5840 5841 5844 5846 5849 5852 5854 5857 5859 5861 5863 5865 5867 5868 5870 5871 5873 5874 5875 5875 5876 5876 5877 5877 5877 5876 5876 5876 5875 5874 5873 5872 5871 5869 5868 5866 5865 5864
5837 5837 5837 5837 5838 5840 5841 5843 5845 5848 5851 5853 5855 5857 5859 5862 5864 5865 5867 5868 5870 5871 5872 5873 5874 5874 5875 5875 5875 5875 5875 5874 5874 5873 5872 5871 5870 5869 5867 5866 5864 5863 5861
5837 5837 5837 5838 5839 5840 5841 5843 5845 5847 5849 5852 5854 5856 5858 5860 5862 5863 5865 5866 5868 5869 5870 5871 5871 5872 5872 5873 5873 5872 5872 5872 5871 5871 5870 5869 5867 5866 5865 5863 5861 5860 5858
5837 5837 5837 5838 5838 5839 5841 5842 5844 5846 5848 5850 5852 5854 5856 5858 5860 5861 5863 5864 5865 5866 5867 5868 5869 5869 5869 5870 5869 5869 5869 5869 5868 5867 5866 5865 5864 5863 5861 5859 5858 5856 5854
5837 5837 5837 5837 5837 5839 5840 5841 5843 5845 5846 5848 5850 5852 5854 5855 5857 5858 5860 5861 5862 5863 5864 5865 5865 5866 5866 5866 5866 5865 5865 5865 5864 5863 5862 5861 5859 5858 5856 5855 5853 5851 5850
5837 5836 5836 5837 5837 5837 5838 5840 5841 5843 5845 5846 5848 5849 5851 5852 5854 5855 5856 5857 5859 5859 5860 5861 5861 5861 5861 5861 5861 5861 5860 5859 5859 5858 5857 5855 5854 5852 5851 5849 5848 5846 5844
5835 5835 5835 5835 5836 5836 5837 5838 5839 5841 5842 5843 5844 5846 5847 5849 5850 5851 5852 5853 5854 5855 5855 5856 5856 5856 5856 5856 5855 5855 5854 5853 5852 5851 5850 5849 5847 5846 5844 5843 5841 5839 5838
5833 5833 5833 5833 5833 5834 5835 5836 5837 5838 5839 5840 5841 5842 5843 5844 5845 5846 5847 5848 5849 5849 5850 5850 5850 5850 5850 5849 5849 5848 5847 5846 5845 5844 5843 5842 5840 5839 5837 5836 5834 5832 5830
5831 5831 5831 5831 5831 5832 5832 5834 5835 5835 5836 5836 5836 5838 5839 5839 5840 5841 5842 5842 5843 5843 5843 5843 5843 5843 5842 5842 5841 5840 5839 5838 5837 5836 5835 5834 5832 5831 5829 5828 5826 5824 5822
5828 5828 5828 5828 5828 5828 5830 5831 5831 5832 5832 5832 5832 5833 5834 5835 5835 5835 5836 5836 5836 5836 5836 5836 5835 5834 5834 5833 5832 5831 5830 5830 5829 5827 5826 5824 5823 5822 5820 5818 5817 5815 5814
5823 5824 5824 5824 5825 5826 5826 5826 5826 5826 5826 5827 5828 5828 5828 5828 5828 5829 5829 5829 5829 5828 5828 5827 5827 5826 5825 5824 5823 5822 5821 5820 5819 5818 5816 5815 5814 5812 5811 5809 5807 5805 5803
5819 5819 5820 5820 5820 5821 5821 5821 5822 5821 5821 5821 5821 5821 5821 5821 5821 5821 5821 5820 5819 5819 5819 5818 5818 5817 5815 5814 5813 5812 5811 5810 5809 5807 5806 5804 5803 5801 5800 5798 5797 5795 5793
5813 5813 5814 5814 5815 5815 5815 5815 5815 5816 5815 5815 5813 5813 5813 5813 5813 5812 5812 5811 5810 5810 5809 5808 5807 5807 5805 5804 5803 5801 5800 5799 5798 5796 5795 5793 5792 5790 5787 5786 5785 5783 5781
5807 5807 5807 5808 5808 5808 5808 5808 5808 5808 5808 5807 5806 5805 5805 5804 5804 5803 5802 5801 5800 5799 5798 5797 5796 5795 5794 5793 5792 5790 5788 5788 5787 5785 5784 5782 5780 5778 5775 5773 5772 5770 5768
5800 5801 5801 5801 5801 5801 5801 5800 5800 5799 5799 5799 5798 5797 5796 5794 5793 5792 5792 5791 5789 5789 5787 5786 5785 5784 5783 5782 5780 5778 5776 5775 5775 5773 5771 5769 5767 5765 5762 5760 5758 5756 5753
5794 5794 5794 5794 5793 5793 5793 5792 5792 5791 5790 5790 5789 5788 5786 5785 5783 5782 5781 5780 5779 5779 5777 5776 5775 5773 5772 5770 5768 5766 5765 5762 5761 5759 5757 5755 5752 5750 5748 5745 5743 5740 5737
5786 5786 5786 5786 5786 5785 5784 5783 5782 5782 5781 5780 5779 5777 5776 5775 5773 5772 5770 5769 5768 5767 5766 5765 5763 5762 5760 5758 5756 5754 5752 5749 5747 5745 5743 5740 5737 5734 5732 5729 5726 5723 5720
5778 5778 5778 5778 5777 5777 5776 5775 5774 5773 5772 5770 5768 5766 5765 5764 5762 5761 5759 5758 5756 5755 5754 5752 5751 5749 5747 5745 5743 5740 5737 5734 5732 5730 5727 5724 5721 5718 5715 5712 5709 5705 5703
5771 5771 5770 5769 5769 5768 5767 5766 5765 5764 5762 5761 5758 5757 5756 5755 5753 5751 5749 5747 5746 5744 5742 5740 5738 5736 5733 5731 5728 5725 5722 5719 5716 5713 5711 5707 5704 5701 5698 5694 5691 5687 5684
5764 5763 5762 5761 5760 5759 5757 5756 5755 5753 5752 5751 5748 5746 5745 5743 5742 5740 5738 5736 5734 5732 5729 5727 5725 5722 5719 5716 5713 5710 5707 5703 5699 5696 5693 5689 5686 5682 5679 5675 5672 5668 5665